Tracking 35334 objects as of 12-Sep-2026
HD Live streaming from Space Station
objects crossing your sky now

SL-14 DEB


SL-14 DEB is no longer on orbit


NORAD ID: 29128
Int'l Code: 1985-108S
Launch date: November 22, 1985
Source: Commonwealth of Independent States (former USSR) (CIS)
Launch site: PLESETSK MISSILE AND SPACE COMPLEX (PKMTR)
Decay date: 2006-06-06

Note: This is SATELLITE DEBRIS
Your satellite tracking list
Your tracking list is empty




NASA's NSSDC Master Catalog

Two Line Element Set (TLE):
1 29128U 85108S   06157.04819827  .41640672  00000-0  17171+0 0  9998
2 29128 082.3501 286.7413 0039355 280.3536 080.0181 15.76822564  4789
Source of the keplerian elements: AFSPC